Home   Weather   Norden   Past weeks

Flag for Germany Past Weather in Norden, Lower Saxony, Germany — Yesterday and Last 2 Weeks

Now
61 °F

Overcast.


Feels Like: 61 °F
Forecast: 59 / 67 °F
Wind: No wind

Location: Emden-Koenigspolder

Current Time: Aug 31, 2016 at 11:48:41 PM

Latest Report: Aug 31, 2016 at 10:00 PM


Visibility: 4 mi

Pressure: 30.10 "Hg

Humidity: 94%

Dew Point: 59 °F

Location of NordenLocation

Past Weather in Norden — Graph

°F

Norden Temperature Yesterday

Maximum temperature yesterday: 71 °F (at 4:00 PM)
Minimum temperature yesterday: 56 °F (at 7:00 AM)
Average temperature yesterday: 61 °F

High & Low Weather Summary for the Past Weeks

 TemperatureHumidityPressure
High88 °F (Aug 25, 4:00 PM)100% (Aug 17, 1:00 AM)30.32 "Hg (Aug 17, 1:00 AM)
Low48 °F (Aug 19, 7:00 AM)40% (Aug 25, 3:00 PM)29.77 "Hg (Aug 20, 1:00 AM)
Average65 °F80%30.03 "Hg
* Reported Aug 16 10:00 PM — Aug 31 10:00 PM, Norden, Weather by CustomWeather, © 2016

Note: Actual official high and low records may vary slightly from our data, if they occured in-between our weather recording intervals... More about our weather records

Advertising

Norden Weather History for the Previous 24 Hours

Scroll right to see more
 ConditionsComfort  
Time TempWeatherWind HumidityBarometerVisibility
10:00 PM
Wed, Aug 31
61 °FOvercast.No wind94%30.10 "Hg4 mi
9:00 PM63 °FFog.2 mph84%30.09 "Hg4 mi
7:00 PM74 °FScattered clouds.3 mph50%30.08 "Hg19 mi
6:00 PM74 °FPartly sunny.3 mph49%30.08 "Hg15 mi
4:00 PM75 °FOvercast.5 mph45%30.09 "Hg3 mi
3:00 PM76 °FOvercast.6 mph43%30.10 "Hg14 mi
1:00 PM73 °FOvercast.3 mph44%30.12 "Hg7 mi
12:00 PM72 °FOvercast.3 mph58%30.14 "Hg14 mi
10:00 AM64 °FPartly sunny.3 mph76%30.15 "Hg11 mi
9:00 AM59 °FOvercast.2 mph84%30.16 "Hg5 mi
8:00 AMN/APassing clouds.1 mphN/AN/A5 mi
7:00 AM53 °FFog.2 mph97%30.18 "Hg2 mi
6:00 AM53 °FFog.1 mph97%30.19 "Hg2 mi
4:00 AM55 °FFog.2 mph98%30.21 "Hg2 mi
3:00 AM56 °FClear.2 mph98%30.22 "Hg3 mi
1:00 AM56 °FClear.1 mph100%30.24 "Hg0 mi
12:00 AM57 °FClear.1 mph100%30.24 "Hg0 mi
Weather by CustomWeather, © 2016

See weather overviewHow to use our weather pages